User: anonymous   Login
Location: Ch�tillon
(48.8024°N, 2.2935°E)
Time: 03:43:08
(UTC+00:00)
Language:

In-Cosmos 22 Rocket - Orbit

View from above orbital plane
View from above orbital plane
View from above satellite
View from above satellite

Ground track
Ground track

The orbit data is extracted from the following two-line orbital elements,

1 12646U 81075B   22026.61730264  .00000061  00000-0  24053-4 0  9996
2 12646  81.2245  52.8648 0066946 218.9702 260.4545 14.15929791 89883
Epoch (UTC): 26 January 2022 14:48:54
Eccentricity: 0.0066946
inclination: 81.2245°
perigee height: 791 km
apogee height: 887 km
right ascension of ascending node: 52.8648°
argument of perigee: 218.9702°
revolutions per day: 14.15929791
mean anomaly at epoch: 260.4545°
orbit number at epoch: 8988

The dashed part of the orbit path shows where the satellite is in the earth's shadow,  

DLR